Time,TemperatureF,DewpointF,PressureIn,WindDirection,WindDirectionDegrees,WindSpeedMPH,WindSpeedGustMPH,Humidity,HourlyPrecipIn,Conditions,Clouds,dailyrainin,SoftwareType,DateUTC
2013-03-08 00:00:00,39.7,32.4,30.19,NNW,342,5.0,8.0,75,0.00,,,0.00,Wunderground v.1.15,2013-03-08 05:00:00,
2013-03-08 00:05:00,39.6,32.3,30.19,NNE,20,5.0,8.0,75,0.00,,,0.00,Wunderground v.1.15,2013-03-08 05:05:00,
2013-03-08 00:10:00,39.5,31.9,30.19,NNW,328,6.0,6.0,74,0.00,,,0.00,Wunderground v.1.15,2013-03-08 05:10:00,
2013-03-08 00:15:00,39.4,32.1,30.19,NNW,333,6.0,8.0,75,0.00,,,0.00,Wunderground v.1.15,2013-03-08 05:15:00,
2013-03-08 00:20:00,39.3,32.0,30.19,NNW,328,6.0,6.0,75,0.00,,,0.00,Wunderground v.1.15,2013-03-08 05:20:00,
2013-03-08 00:25:00,39.2,31.9,30.19,North,352,5.0,8.0,75,0.00,,,0.00,Wunderground v.1.15,2013-03-08 05:25:00,
2013-03-08 00:30:00,39.1,31.8,30.19,NNW,332,5.0,8.0,75,0.00,,,0.00,Wunderground v.1.15,2013-03-08 05:30:00,
2013-03-08 00:35:00,38.9,32.0,30.19,North,353,5.0,8.0,76,0.00,,,0.00,Wunderground v.1.15,2013-03-08 05:35:00,
2013-03-08 00:45:00,38.5,31.9,30.19,North,9,4.0,8.0,77,0.00,,,0.00,Wunderground v.1.15,2013-03-08 05:45:00,
2013-03-08 00:50:00,38.3,31.7,30.19,NNE,20,4.0,8.0,77,0.00,,,0.00,Wunderground v.1.15,2013-03-08 05:50:00,
2013-03-08 00:55:00,38.1,31.5,30.19,North,6,4.0,8.0,77,0.00,,,0.00,Wunderground v.1.15,2013-03-08 05:55:00,
2013-03-08 01:00:00,38.0,31.4,30.19,NW,312,5.0,10.0,77,0.00,,,0.00,Wunderground v.1.15,2013-03-08 06:00:00,
2013-03-08 01:05:00,38.0,31.7,30.19,North,352,4.0,10.0,78,0.00,,,0.00,Wunderground v.1.15,2013-03-08 06:05:00,
2013-03-08 01:10:00,37.9,31.7,30.19,North,354,4.0,10.0,78,0.00,,,0.00,Wunderground v.1.15,2013-03-08 06:10:00,
2013-03-08 01:20:00,37.7,31.5,30.19,NNW,328,4.0,10.0,78,0.00,,,0.00,Wunderground v.1.15,2013-03-08 06:20:00,
2013-03-08 01:25:00,37.6,31.4,30.19,NNW,338,5.0,10.0,78,0.00,,,0.00,Wunderground v.1.15,2013-03-08 06:25:00,
2013-03-08 01:30:00,37.5,31.3,30.19,NNW,339,5.0,5.0,78,0.00,,,0.00,Wunderground v.1.15,2013-03-08 06:30:00,
2013-03-08 01:35:00,37.3,31.4,30.19,North,350,5.0,10.0,79,0.00,,,0.00,Wunderground v.1.15,2013-03-08 06:35:00,
2013-03-08 01:40:00,37.2,31.3,30.19,NW,309,5.0,10.0,79,0.00,,,0.00,Wunderground v.1.15,2013-03-08 06:40:00,
2013-03-08 01:45:00,37.0,31.1,30.19,North,355,5.0,10.0,79,0.00,,,0.00,Wunderground v.1.15,2013-03-08 06:45:00,
2013-03-08 01:55:00,36.8,31.2,30.19,NNW,330,4.0,10.0,80,0.00,,,0.00,Wunderground v.1.15,2013-03-08 06:55:00,
2013-03-08 02:00:00,36.8,31.2,30.19,NNW,344,5.0,8.0,80,0.00,,,0.00,Wunderground v.1.15,2013-03-08 07:00:00,
2013-03-08 02:05:00,36.6,31.0,30.19,NNW,335,5.0,8.0,80,0.00,,,0.00,Wunderground v.1.15,2013-03-08 07:05:00,
2013-03-08 02:10:00,36.5,31.2,30.18,NNW,332,5.0,5.0,81,0.00,,,0.00,Wunderground v.1.15,2013-03-08 07:10:00,
2013-03-08 02:15:00,36.4,31.1,30.18,NNW,328,5.0,8.0,81,0.00,,,0.00,Wunderground v.1.15,2013-03-08 07:15:00,
2013-03-08 02:20:00,36.4,30.8,30.19,NNW,344,5.0,5.0,80,0.00,,,0.00,Wunderground v.1.15,2013-03-08 07:20:00,
2013-03-08 02:25:00,36.5,30.9,30.18,NW,304,5.0,8.0,80,0.00,,,0.00,Wunderground v.1.15,2013-03-08 07:25:00,
2013-03-08 02:30:00,36.5,30.9,30.18,NNW,328,5.0,5.0,80,0.00,,,0.00,Wunderground v.1.15,2013-03-08 07:30:00,
2013-03-08 02:35:00,36.5,30.9,30.18,NE,53,4.0,8.0,80,0.00,,,0.00,Wunderground v.1.15,2013-03-08 07:35:00,
2013-03-08 02:40:00,36.5,30.9,30.18,NNW,330,4.0,4.0,80,0.00,,,0.00,Wunderground v.1.15,2013-03-08 07:40:00,
2013-03-08 02:45:00,36.5,30.9,30.18,NNW,333,3.0,8.0,80,0.00,,,0.00,Wunderground v.1.15,2013-03-08 07:45:00,
2013-03-08 02:50:00,36.4,31.1,30.18,NW,326,2.0,8.0,81,0.00,,,0.00,Wunderground v.1.15,2013-03-08 07:50:00,
2013-03-08 02:55:00,36.3,31.0,30.17,NNW,332,2.0,8.0,81,0.00,,,0.00,Wunderground v.1.15,2013-03-08 07:55:00,
2013-03-08 03:00:00,36.2,30.9,30.17,NW,320,3.0,3.0,81,0.00,,,0.00,Wunderground v.1.15,2013-03-08 08:00:00,
2013-03-08 03:05:00,36.1,30.8,30.17,WNW,299,3.0,8.0,81,0.00,,,0.00,Wunderground v.1.15,2013-03-08 08:05:00,
2013-03-08 03:10:00,36.1,31.1,30.17,NW,305,3.0,8.0,82,0.00,,,0.00,Wunderground v.1.15,2013-03-08 08:10:00,
2013-03-08 03:15:00,36.0,31.0,30.17,NNW,348,3.0,8.0,82,0.00,,,0.00,Wunderground v.1.15,2013-03-08 08:15:00,
2013-03-08 03:20:00,36.0,31.0,30.17,North,9,3.0,8.0,82,0.00,,,0.00,Wunderground v.1.15,2013-03-08 08:20:00,
2013-03-08 03:25:00,35.9,30.9,30.17,NNW,335,3.0,8.0,82,0.00,,,0.00,Wunderground v.1.15,2013-03-08 08:25:00,
2013-03-08 03:30:00,35.9,30.9,30.17,NNE,19,3.0,8.0,82,0.00,,,0.00,Wunderground v.1.15,2013-03-08 08:30:00,
2013-03-08 03:35:00,35.9,30.9,30.17,NNW,337,3.0,8.0,82,0.00,,,0.00,Wunderground v.1.15,2013-03-08 08:35:00,
2013-03-08 03:40:00,35.8,30.5,30.17,WNW,302,4.0,8.0,81,0.00,,,0.00,Wunderground v.1.15,2013-03-08 08:40:00,
2013-03-08 03:45:00,35.7,30.4,30.17,NNW,330,4.0,8.0,81,0.00,,,0.00,Wunderground v.1.15,2013-03-08 08:45:00,
2013-03-08 03:50:00,35.7,30.4,30.17,NNW,337,4.0,4.0,81,0.00,,,0.00,Wunderground v.1.15,2013-03-08 08:50:00,
2013-03-08 03:55:00,35.6,30.6,30.17,NNW,328,4.0,8.0,82,0.00,,,0.00,Wunderground v.1.15,2013-03-08 08:55:00,
2013-03-08 04:00:00,35.5,30.5,30.17,NNW,328,3.0,7.0,82,0.00,,,0.00,Wunderground v.1.15,2013-03-08 09:00:00,
2013-03-08 04:05:00,35.4,30.1,30.17,NW,312,4.0,7.0,81,0.00,,,0.00,Wunderground v.1.15,2013-03-08 09:05:00,
2013-03-08 04:10:00,35.3,30.4,30.18,NW,304,4.0,7.0,82,0.00,,,0.00,Wunderground v.1.15,2013-03-08 09:10:00,
2013-03-08 04:15:00,35.0,30.1,30.18,NW,313,4.0,7.0,82,0.00,,,0.00,Wunderground v.1.15,2013-03-08 09:15:00,
2013-03-08 04:20:00,34.8,30.2,30.18,NW,316,4.0,7.0,83,0.00,,,0.00,Wunderground v.1.15,2013-03-08 09:20:00,
2013-03-08 04:25:00,34.7,30.1,30.18,NNE,19,4.0,7.0,83,0.00,,,0.00,Wunderground v.1.15,2013-03-08 09:25:00,
2013-03-08 04:35:00,34.5,29.9,30.18,NNW,328,4.0,7.0,83,0.00,,,0.00,Wunderground v.1.15,2013-03-08 09:35:00,
2013-03-08 04:40:00,34.4,30.1,30.18,NNW,342,4.0,7.0,84,0.00,,,0.00,Wunderground v.1.15,2013-03-08 09:40:00,
2013-03-08 04:45:00,34.3,29.7,30.18,NW,326,5.0,7.0,83,0.00,,,0.00,Wunderground v.1.15,2013-03-08 09:45:00,
2013-03-08 04:50:00,34.2,29.9,30.19,North,359,6.0,7.0,84,0.00,,,0.00,Wunderground v.1.15,2013-03-08 09:50:00,
2013-03-08 04:55:00,34.1,29.8,30.19,NNW,328,5.0,7.0,84,0.00,,,0.00,Wunderground v.1.15,2013-03-08 09:55:00,
2013-03-08 05:00:00,34.1,29.8,30.19,NW,323,5.0,5.0,84,0.00,,,0.00,Wunderground v.1.15,2013-03-08 10:00:00,
2013-03-08 05:05:00,33.9,29.6,30.19,NW,326,6.0,6.0,84,0.00,,,0.00,Wunderground v.1.15,2013-03-08 10:05:00,
2013-03-08 05:10:00,33.9,29.6,30.19,NW,323,6.0,6.0,84,0.00,,,0.00,Wunderground v.1.15,2013-03-08 10:10:00,
2013-03-08 05:15:00,34.0,29.7,30.19,NW,323,6.0,10.0,84,0.00,,,0.00,Wunderground v.1.15,2013-03-08 10:15:00,
2013-03-08 05:25:00,33.9,29.6,30.19,NW,324,5.0,10.0,84,0.00,,,0.00,Wunderground v.1.15,2013-03-08 10:25:00,
2013-03-08 05:30:00,33.9,29.6,30.19,NNE,25,6.0,6.0,84,0.00,,,0.00,Wunderground v.1.15,2013-03-08 10:30:00,
2013-03-08 05:35:00,33.9,29.6,30.19,NNW,333,6.0,10.0,84,0.00,,,0.00,Wunderground v.1.15,2013-03-08 10:35:00,
2013-03-08 05:40:00,33.8,29.5,30.20,NW,320,6.0,10.0,84,0.00,,,0.00,Wunderground v.1.15,2013-03-08 10:40:00,
2013-03-08 05:45:00,33.8,29.5,30.20,NNW,346,5.0,10.0,84,0.00,,,0.00,Wunderground v.1.15,2013-03-08 10:45:00,
2013-03-08 05:50:00,33.7,29.4,30.20,NNW,333,5.0,10.0,84,0.00,,,0.00,Wunderground v.1.15,2013-03-08 10:50:00,
2013-03-08 05:55:00,33.6,29.3,30.20,North,355,6.0,10.0,84,0.00,,,0.00,Wunderground v.1.15,2013-03-08 10:55:00,
2013-03-08 06:00:00,33.7,29.4,30.20,NW,319,6.0,11.0,84,0.00,,,0.00,Wunderground v.1.15,2013-03-08 11:00:00,
2013-03-08 06:05:00,33.7,29.1,30.20,NNW,342,7.0,11.0,83,0.00,,,0.00,Wunderground v.1.15,2013-03-08 11:05:00,
2013-03-08 06:10:00,33.7,29.1,30.20,NNW,328,7.0,11.0,83,0.00,,,0.00,Wunderground v.1.15,2013-03-08 11:10:00,
2013-03-08 06:15:00,33.5,28.9,30.20,NNE,20,7.0,11.0,83,0.00,,,0.00,Wunderground v.1.15,2013-03-08 11:15:00,
2013-03-08 06:20:00,33.5,28.9,30.21,NNW,340,6.0,6.0,83,0.00,,,0.00,Wunderground v.1.15,2013-03-08 11:20:00,
2013-03-08 06:25:00,33.5,29.2,30.21,North,352,6.0,11.0,84,0.00,,,0.00,Wunderground v.1.15,2013-03-08 11:25:00,
2013-03-08 06:30:00,33.4,29.1,30.21,North,354,5.0,11.0,84,0.00,,,0.00,Wunderground v.1.15,2013-03-08 11:30:00,
2013-03-08 06:35:00,33.4,29.1,30.21,NNW,338,5.0,11.0,84,0.00,,,0.00,Wunderground v.1.15,2013-03-08 11:35:00,
2013-03-08 06:40:00,33.5,29.2,30.21,NNE,23,6.0,11.0,84,0.00,,,0.00,Wunderground v.1.15,2013-03-08 11:40:00,
2013-03-08 06:45:00,33.5,29.2,30.21,North,359,6.0,11.0,84,0.00,,,0.00,Wunderground v.1.15,2013-03-08 11:45:00,
2013-03-08 06:50:00,33.6,29.3,30.22,WNW,284,5.0,11.0,84,0.00,,,0.00,Wunderground v.1.15,2013-03-08 11:50:00,
2013-03-08 06:55:00,33.7,29.4,30.22,NNW,345,6.0,11.0,84,0.00,,,0.00,Wunderground v.1.15,2013-03-08 11:55:00,
2013-03-08 07:00:00,33.9,29.6,30.22,NNW,334,6.0,12.0,84,0.00,,,0.00,Wunderground v.1.15,2013-03-08 12:00:00,
2013-03-08 07:05:00,34.2,29.6,30.22,NW,321,6.0,12.0,83,0.00,,,0.00,Wunderground v.1.15,2013-03-08 12:05:00,
2013-03-08 07:10:00,34.3,29.4,30.22,NW,324,7.0,12.0,82,0.00,,,0.00,Wunderground v.1.15,2013-03-08 12:10:00,
2013-03-08 07:15:00,34.5,29.6,30.22,NNW,328,7.0,12.0,82,0.00,,,0.00,Wunderground v.1.15,2013-03-08 12:15:00,
2013-03-08 07:20:00,34.8,29.6,30.22,NNW,345,7.0,12.0,81,0.00,,,0.00,Wunderground v.1.15,2013-03-08 12:20:00,
2013-03-08 07:25:00,34.9,29.7,30.22,NW,326,7.0,12.0,81,0.00,,,0.00,Wunderground v.1.15,2013-03-08 12:25:00,
2013-03-08 07:30:00,35.2,29.6,30.22,NW,322,7.0,12.0,80,0.00,,,0.00,Wunderground v.1.15,2013-03-08 12:30:00,
2013-03-08 07:35:00,35.4,29.8,30.23,NNW,330,7.0,12.0,80,0.00,,,0.00,Wunderground v.1.15,2013-03-08 12:35:00,
2013-03-08 07:40:00,35.6,29.4,30.23,NW,323,7.0,12.0,78,0.00,,,0.00,Wunderground v.1.15,2013-03-08 12:40:00,
2013-03-08 07:45:00,35.8,29.9,30.23,NW,312,7.0,12.0,79,0.00,,,0.00,Wunderground v.1.15,2013-03-08 12:45:00,
2013-03-08 07:50:00,36.1,29.9,30.23,NNW,342,7.0,12.0,78,0.00,,,0.00,Wunderground v.1.15,2013-03-08 12:50:00,
2013-03-08 07:55:00,36.5,30.0,30.23,NNW,333,7.0,12.0,77,0.00,,,0.00,Wunderground v.1.15,2013-03-08 12:55:00,
2013-03-08 08:00:00,36.8,29.6,30.23,NNE,13,8.0,12.0,75,0.00,,,0.00,Wunderground v.1.15,2013-03-08 13:00:00,
2013-03-08 08:05:00,37.3,30.4,30.23,North,352,7.0,12.0,76,0.00,,,0.00,Wunderground v.1.15,2013-03-08 13:05:00,
2013-03-08 08:10:00,37.8,30.6,30.23,NNW,336,7.0,12.0,75,0.00,,,0.00,Wunderground v.1.15,2013-03-08 13:10:00,
2013-03-08 08:20:00,38.5,30.3,30.23,NNW,345,8.0,12.0,72,0.00,,,0.00,Wunderground v.1.15,2013-03-08 13:20:00,
2013-03-08 08:25:00,38.9,30.6,30.23,North,8,8.0,12.0,72,0.00,,,0.00,Wunderground v.1.15,2013-03-08 13:25:00,
2013-03-08 08:30:00,39.2,30.2,30.23,NNE,12,8.0,13.0,70,0.00,,,0.00,Wunderground v.1.15,2013-03-08 13:30:00,
2013-03-08 08:35:00,39.7,31.4,30.24,NNE,20,8.0,13.0,72,0.00,,,0.00,Wunderground v.1.15,2013-03-08 13:35:00,
2013-03-08 08:40:00,40.1,31.1,30.24,NNE,16,8.0,8.0,70,0.00,,,0.00,Wunderground v.1.15,2013-03-08 13:40:00,
2013-03-08 08:45:00,40.3,30.9,30.23,NNE,16,8.0,11.0,69,0.00,,,0.00,Wunderground v.1.15,2013-03-08 13:45:00,
2013-03-08 08:55:00,41.1,31.7,30.23,NNW,329,9.0,10.0,69,0.00,,,0.00,Wunderground v.1.15,2013-03-08 13:55:00,
2013-03-08 09:00:00,41.5,31.0,30.24,North,7,9.0,14.0,66,0.00,,,0.00,Wunderground v.1.15,2013-03-08 14:00:00,
2013-03-08 09:05:00,41.9,31.7,30.24,North,11,8.0,14.0,67,0.00,,,0.00,Wunderground v.1.15,2013-03-08 14:05:00,
2013-03-08 09:10:00,42.4,31.8,30.24,NNW,338,9.0,9.0,66,0.00,,,0.00,Wunderground v.1.15,2013-03-08 14:10:00,
2013-03-08 09:15:00,42.7,31.4,30.24,NNE,30,9.0,14.0,64,0.00,,,0.00,Wunderground v.1.15,2013-03-08 14:15:00,
2013-03-08 09:25:00,43.6,31.0,30.23,NNW,333,8.0,14.0,61,0.00,,,0.00,Wunderground v.1.15,2013-03-08 14:25:00,
2013-03-08 09:30:00,43.6,31.0,30.23,NW,321,10.0,14.0,61,0.00,,,0.00,Wunderground v.1.15,2013-03-08 14:30:00,
2013-03-08 09:35:00,43.8,30.8,30.22,NNE,23,11.0,14.0,60,0.00,,,0.00,Wunderground v.1.15,2013-03-08 14:35:00,
2013-03-08 09:40:00,44.3,31.7,30.22,NW,326,10.0,10.0,61,0.00,,,0.00,Wunderground v.1.15,2013-03-08 14:40:00,
2013-03-08 09:45:00,45.0,31.9,30.22,NNE,22,9.0,14.0,60,0.00,,,0.00,Wunderground v.1.15,2013-03-08 14:45:00,
2013-03-08 09:50:00,45.1,31.2,30.22,WNW,302,9.0,14.0,58,0.00,,,0.00,Wunderground v.1.15,2013-03-08 14:50:00,
2013-03-08 09:55:00,45.3,31.0,30.22,NNW,332,11.0,14.0,57,0.00,,,0.00,Wunderground v.1.15,2013-03-08 14:55:00,
2013-03-08 10:00:00,45.7,30.9,30.22,NNW,347,11.0,11.0,56,0.00,,,0.00,Wunderground v.1.15,2013-03-08 15:00:00,
2013-03-08 10:05:00,46.1,31.3,30.22,NW,318,10.0,12.0,56,0.00,,,0.00,Wunderground v.1.15,2013-03-08 15:05:00,
2013-03-08 10:10:00,46.2,30.9,30.22,North,357,11.0,19.0,55,0.00,,,0.00,Wunderground v.1.15,2013-03-08 15:10:00,
2013-03-08 10:15:00,46.4,31.1,30.21,NNE,22,11.0,19.0,55,0.00,,,0.00,Wunderground v.1.15,2013-03-08 15:15:00,
2013-03-08 10:20:00,46.5,31.2,30.21,NW,319,11.0,11.0,55,0.00,,,0.00,Wunderground v.1.15,2013-03-08 15:20:00,
2013-03-08 10:30:00,46.6,30.8,30.21,North,6,14.0,19.0,54,0.00,,,0.00,Wunderground v.1.15,2013-03-08 15:30:00,
2013-03-08 10:35:00,46.8,30.1,30.20,NNE,12,15.0,19.0,52,0.00,,,0.00,Wunderground v.1.15,2013-03-08 15:35:00,
2013-03-08 10:40:00,47.1,29.9,30.21,NNE,12,14.0,19.0,51,0.00,,,0.00,Wunderground v.1.15,2013-03-08 15:40:00,
2013-03-08 10:45:00,47.6,30.8,30.20,NNE,23,13.0,19.0,52,0.00,,,0.00,Wunderground v.1.15,2013-03-08 15:45:00,
2013-03-08 10:50:00,47.6,29.9,30.20,North,8,13.0,19.0,50,0.00,,,0.00,Wunderground v.1.15,2013-03-08 15:50:00,
2013-03-08 10:55:00,48.0,30.7,30.20,NW,321,13.0,19.0,51,0.00,,,0.00,Wunderground v.1.15,2013-03-08 15:55:00,
2013-03-08 11:00:00,48.2,30.4,30.20,NNE,20,12.0,24.0,50,0.00,,,0.00,Wunderground v.1.15,2013-03-08 16:00:00,
2013-03-08 11:05:00,48.5,30.7,30.20,North,5,12.0,24.0,50,0.00,,,0.00,Wunderground v.1.15,2013-03-08 16:05:00,
2013-03-08 11:10:00,48.3,30.0,30.20,ENE,73,13.0,13.0,49,0.00,,,0.00,Wunderground v.1.15,2013-03-08 16:10:00,
2013-03-08 11:15:00,48.3,31.0,30.19,NNE,15,13.0,24.0,51,0.00,,,0.00,Wunderground v.1.15,2013-03-08 16:15:00,
2013-03-08 11:20:00,48.7,30.4,30.19,NNE,23,13.0,24.0,49,0.00,,,0.00,Wunderground v.1.15,2013-03-08 16:20:00,
2013-03-08 11:25:00,48.6,30.3,30.19,North,349,12.0,24.0,49,0.00,,,0.00,Wunderground v.1.15,2013-03-08 16:25:00,
2013-03-08 11:35:00,48.9,31.1,30.19,NNE,16,13.0,24.0,50,0.00,,,0.00,Wunderground v.1.15,2013-03-08 16:35:00,
2013-03-08 11:40:00,48.9,30.1,30.19,NNE,23,13.0,24.0,48,0.00,,,0.00,Wunderground v.1.15,2013-03-08 16:40:00,
2013-03-08 11:45:00,49.2,31.3,30.18,North,354,13.0,24.0,50,0.00,,,0.00,Wunderground v.1.15,2013-03-08 16:45:00,
2013-03-08 11:50:00,49.4,30.0,30.18,NW,321,12.0,12.0,47,0.00,,,0.00,Wunderground v.1.15,2013-03-08 16:50:00,
2013-03-08 11:55:00,49.4,30.0,30.18,NNW,330,11.0,24.0,47,0.00,,,0.00,Wunderground v.1.15,2013-03-08 16:55:00,
2013-03-08 12:00:00,49.2,29.8,30.18,NNW,333,13.0,25.0,47,0.00,,,0.00,Wunderground v.1.15,2013-03-08 17:00:00,
2013-03-08 12:10:00,50.0,31.1,30.17,North,9,12.0,25.0,48,0.00,,,0.00,Wunderground v.1.15,2013-03-08 17:10:00,
2013-03-08 12:15:00,49.9,30.5,30.17,North,11,13.0,25.0,47,0.00,,,0.00,Wunderground v.1.15,2013-03-08 17:15:00,
2013-03-08 12:20:00,50.1,28.4,30.16,NW,324,14.0,25.0,43,0.00,,,0.00,Wunderground v.1.15,2013-03-08 17:20:00,
2013-03-08 12:25:00,50.4,29.3,30.16,North,9,13.0,25.0,44,0.00,,,0.00,Wunderground v.1.15,2013-03-08 17:25:00,
2013-03-08 12:30:00,50.7,31.7,30.16,North,4,12.0,25.0,48,0.00,,,0.00,Wunderground v.1.15,2013-03-08 17:30:00,
2013-03-08 12:40:00,50.6,28.9,30.16,North,356,12.0,25.0,43,0.00,,,0.00,Wunderground v.1.15,2013-03-08 17:40:00,
2013-03-08 12:45:00,50.9,29.7,30.15,NNW,346,13.0,25.0,44,0.00,,,0.00,Wunderground v.1.15,2013-03-08 17:45:00,
2013-03-08 12:50:00,51.0,28.1,30.15,North,8,14.0,25.0,41,0.00,,,0.00,Wunderground v.1.15,2013-03-08 17:50:00,
2013-03-08 12:55:00,51.1,28.8,30.15,NNE,29,14.0,25.0,42,0.00,,,0.00,Wunderground v.1.15,2013-03-08 17:55:00,
2013-03-08 13:00:00,51.6,29.2,30.14,NNE,30,12.0,26.0,42,0.00,,,0.00,Wunderground v.1.15,2013-03-08 18:00:00,
2013-03-08 13:05:00,51.9,30.1,30.14,WNW,294,10.0,26.0,43,0.00,,,0.00,Wunderground v.1.15,2013-03-08 18:05:00,
2013-03-08 13:10:00,51.7,28.1,30.14,NW,315,12.0,26.0,40,0.00,,,0.00,Wunderground v.1.15,2013-03-08 18:10:00,
2013-03-08 13:15:00,51.5,29.7,30.14,North,355,14.0,26.0,43,0.00,,,0.00,Wunderground v.1.15,2013-03-08 18:15:00,
2013-03-08 13:20:00,51.8,30.0,30.14,NNE,12,12.0,26.0,43,0.00,,,0.00,Wunderground v.1.15,2013-03-08 18:20:00,
2013-03-08 13:25:00,52.2,31.5,30.14,North,360,12.0,26.0,45,0.00,,,0.00,Wunderground v.1.15,2013-03-08 18:25:00,
2013-03-08 13:30:00,51.9,30.1,30.13,NE,46,12.0,12.0,43,0.00,,,0.00,Wunderground v.1.15,2013-03-08 18:30:00,
2013-03-08 13:35:00,52.3,30.4,30.13,NNW,336,11.0,26.0,43,0.00,,,0.00,Wunderground v.1.15,2013-03-08 18:35:00,
2013-03-08 13:40:00,52.4,28.8,30.13,NW,312,12.0,26.0,40,0.00,,,0.00,Wunderground v.1.15,2013-03-08 18:40:00,
2013-03-08 13:45:00,52.4,28.8,30.13,NNW,339,12.0,26.0,40,0.00,,,0.00,Wunderground v.1.15,2013-03-08 18:45:00,
2013-03-08 13:50:00,52.6,28.3,30.12,NW,317,11.0,11.0,39,0.00,,,0.00,Wunderground v.1.15,2013-03-08 18:50:00,
2013-03-08 14:00:00,53.0,28.7,30.12,NW,311,12.0,12.0,39,0.00,,,0.00,Wunderground v.1.15,2013-03-08 19:00:00,
2013-03-08 14:05:00,53.1,29.4,30.11,NE,39,12.0,24.0,40,0.00,,,0.00,Wunderground v.1.15,2013-03-08 19:05:00,
2013-03-08 14:10:00,53.7,28.7,30.11,NNW,340,12.0,12.0,38,0.00,,,0.00,Wunderground v.1.15,2013-03-08 19:10:00,
2013-03-08 14:15:00,53.5,30.4,30.11,West,264,10.0,24.0,41,0.00,,,0.00,Wunderground v.1.15,2013-03-08 19:15:00,
2013-03-08 14:20:00,53.8,29.4,30.11,NNW,328,10.0,24.0,39,0.00,,,0.00,Wunderground v.1.15,2013-03-08 19:20:00,
2013-03-08 14:25:00,53.7,29.3,30.11,ENE,59,11.0,24.0,39,0.00,,,0.00,Wunderground v.1.15,2013-03-08 19:25:00,
2013-03-08 14:30:00,53.9,30.7,30.11,WNW,291,11.0,11.0,41,0.00,,,0.00,Wunderground v.1.15,2013-03-08 19:30:00,
2013-03-08 14:35:00,54.2,29.8,30.11,NW,314,10.0,24.0,39,0.00,,,0.00,Wunderground v.1.15,2013-03-08 19:35:00,
2013-03-08 14:40:00,54.2,31.0,30.11,NNW,347,10.0,24.0,41,0.00,,,0.00,Wunderground v.1.15,2013-03-08 19:40:00,
2013-03-08 14:50:00,54.1,29.7,30.10,North,357,11.0,24.0,39,0.00,,,0.00,Wunderground v.1.15,2013-03-08 19:50:00,
2013-03-08 14:55:00,54.4,28.6,30.10,NNE,19,10.0,24.0,37,0.00,,,0.00,Wunderground v.1.15,2013-03-08 19:55:00,
2013-03-08 15:00:00,54.8,30.9,30.10,NNE,16,11.0,11.0,40,0.00,,,0.00,Wunderground v.1.15,2013-03-08 20:00:00,
2013-03-08 15:05:00,54.8,29.7,30.11,North,359,11.0,24.0,38,0.00,,,0.00,Wunderground v.1.15,2013-03-08 20:05:00,
2013-03-08 15:10:00,54.5,29.4,30.10,NNW,339,11.0,24.0,38,0.00,,,0.00,Wunderground v.1.15,2013-03-08 20:10:00,
2013-03-08 15:15:00,54.6,29.5,30.11,North,11,11.0,24.0,38,0.00,,,0.00,Wunderground v.1.15,2013-03-08 20:15:00,
2013-03-08 15:25:00,54.7,29.6,30.11,NNE,17,13.0,24.0,38,0.00,,,0.00,Wunderground v.1.15,2013-03-08 20:25:00,
2013-03-08 15:30:00,54.6,29.5,30.11,NNW,327,11.0,24.0,38,0.00,,,0.00,Wunderground v.1.15,2013-03-08 20:30:00,
2013-03-08 15:35:00,54.7,30.2,30.11,NNW,331,11.0,24.0,39,0.00,,,0.00,Wunderground v.1.15,2013-03-08 20:35:00,
2013-03-08 15:40:00,54.8,30.3,30.11,North,358,11.0,11.0,39,0.00,,,0.00,Wunderground v.1.15,2013-03-08 20:40:00,
2013-03-08 15:45:00,55.1,29.3,30.11,NW,311,10.0,24.0,37,0.00,,,0.00,Wunderground v.1.15,2013-03-08 20:45:00,
2013-03-08 15:50:00,55.5,30.3,30.11,NNW,339,8.0,24.0,38,0.00,,,0.00,Wunderground v.1.15,2013-03-08 20:50:00,
2013-03-08 15:55:00,55.3,29.4,30.11,NW,318,11.0,24.0,37,0.00,,,0.00,Wunderground v.1.15,2013-03-08 20:55:00,
2013-03-08 16:00:00,55.2,30.0,30.11,NNW,345,13.0,13.0,38,0.00,,,0.00,Wunderground v.1.15,2013-03-08 21:00:00,
2013-03-08 16:05:00,55.6,32.2,30.12,NNW,330,11.0,24.0,41,0.00,,,0.00,Wunderground v.1.15,2013-03-08 21:05:00,
2013-03-08 16:10:00,55.8,31.2,30.12,NNW,342,9.0,24.0,39,0.00,,,0.00,Wunderground v.1.15,2013-03-08 21:10:00,
2013-03-08 16:15:00,55.6,29.7,30.12,NNW,347,10.0,24.0,37,0.00,,,0.00,Wunderground v.1.15,2013-03-08 21:15:00,
2013-03-08 16:20:00,55.3,29.4,30.12,NNW,346,11.0,11.0,37,0.00,,,0.00,Wunderground v.1.15,2013-03-08 21:20:00,
2013-03-08 16:30:00,55.4,30.8,30.12,NNW,327,11.0,24.0,39,0.00,,,0.00,Wunderground v.1.15,2013-03-08 21:30:00,
2013-03-08 16:35:00,55.6,31.0,30.12,NNE,20,10.0,24.0,39,0.00,,,0.00,Wunderground v.1.15,2013-03-08 21:35:00,
2013-03-08 16:40:00,55.4,30.2,30.12,NNW,347,11.0,24.0,38,0.00,,,0.00,Wunderground v.1.15,2013-03-08 21:40:00,
2013-03-08 16:45:00,55.3,30.1,30.12,NNW,337,12.0,24.0,38,0.00,,,0.00,Wunderground v.1.15,2013-03-08 21:45:00,
2013-03-08 16:50:00,55.3,29.4,30.12,NW,317,13.0,24.0,37,0.00,,,0.00,Wunderground v.1.15,2013-03-08 21:50:00,
2013-03-08 16:55:00,55.3,30.1,30.12,NW,325,12.0,24.0,38,0.00,,,0.00,Wunderground v.1.15,2013-03-08 21:55:00,
2013-03-08 17:00:00,55.4,30.8,30.13,NNW,333,10.0,19.0,39,0.00,,,0.00,Wunderground v.1.15,2013-03-08 22:00:00,
2013-03-08 17:10:00,55.3,29.4,30.13,NW,317,10.0,10.0,37,0.00,,,0.00,Wunderground v.1.15,2013-03-08 22:10:00,
2013-03-08 17:15:00,55.3,29.4,30.13,NNW,327,10.0,19.0,37,0.00,,,0.00,Wunderground v.1.15,2013-03-08 22:15:00,
2013-03-08 17:20:00,55.1,29.9,30.13,North,349,11.0,19.0,38,0.00,,,0.00,Wunderground v.1.15,2013-03-08 22:20:00,
2013-03-08 17:25:00,55.0,30.5,30.13,NW,323,12.0,19.0,39,0.00,,,0.00,Wunderground v.1.15,2013-03-08 22:25:00,
2013-03-08 17:30:00,54.9,29.7,30.13,North,6,11.0,19.0,38,0.00,,,0.00,Wunderground v.1.15,2013-03-08 22:30:00,
2013-03-08 17:35:00,54.7,29.6,30.14,North,356,10.0,19.0,38,0.00,,,0.00,Wunderground v.1.15,2013-03-08 22:35:00,
2013-03-08 17:40:00,54.6,29.5,30.14,NW,319,10.0,10.0,38,0.00,,,0.00,Wunderground v.1.15,2013-03-08 22:40:00,
2013-03-08 17:45:00,54.5,29.4,30.14,NNW,345,10.0,19.0,38,0.00,,,0.00,Wunderground v.1.15,2013-03-08 22:45:00,
2013-03-08 17:50:00,54.2,29.8,30.14,NW,325,9.0,9.0,39,0.00,,,0.00,Wunderground v.1.15,2013-03-08 22:50:00,
2013-03-08 17:55:00,53.9,29.5,30.15,NW,317,8.0,11.0,39,0.00,,,0.00,Wunderground v.1.15,2013-03-08 22:55:00,
2013-03-08 18:00:00,53.5,29.1,30.14,NNW,336,9.0,21.0,39,0.00,,,0.00,Wunderground v.1.15,2013-03-08 23:00:00,
2013-03-08 18:05:00,53.2,29.5,30.15,NNW,333,9.0,21.0,40,0.00,,,0.00,Wunderground v.1.15,2013-03-08 23:05:00,
2013-03-08 18:10:00,52.9,29.8,30.15,NNW,335,8.0,8.0,41,0.00,,,0.00,Wunderground v.1.15,2013-03-08 23:10:00,
2013-03-08 18:25:00,52.0,29.6,30.15,NNW,331,6.0,21.0,42,0.00,,,0.00,Wunderground v.1.15,2013-03-08 23:25:00,
2013-03-08 18:30:00,51.7,29.9,30.15,NW,315,5.0,5.0,43,0.00,,,0.00,Wunderground v.1.15,2013-03-08 23:30:00,
2013-03-08 18:35:00,51.4,30.7,30.15,NW,309,5.0,21.0,45,0.00,,,0.00,Wunderground v.1.15,2013-03-08 23:35:00,
2013-03-08 18:45:00,50.7,31.2,30.16,NNW,336,4.0,21.0,47,0.00,,,0.00,Wunderground v.1.15,2013-03-08 23:45:00,
2013-03-08 18:50:00,50.4,31.4,30.16,NW,321,4.0,21.0,48,0.00,,,0.00,Wunderground v.1.15,2013-03-08 23:50:00,
2013-03-08 18:55:00,50.1,31.2,30.16,North,7,4.0,21.0,48,0.00,,,0.00,Wunderground v.1.15,2013-03-08 23:55:00,
2013-03-08 19:00:00,49.9,31.0,30.16,NNE,20,3.0,13.0,48,0.00,,,0.00,Wunderground v.1.15,2013-03-09 00:00:00,
2013-03-08 19:05:00,49.6,30.7,30.16,NNW,335,4.0,13.0,48,0.00,,,0.00,Wunderground v.1.15,2013-03-09 00:05:00,
2013-03-08 19:10:00,49.4,31.5,30.16,NW,323,4.0,4.0,50,0.00,,,0.00,Wunderground v.1.15,2013-03-09 00:10:00,
2013-03-08 19:20:00,48.8,31.5,30.16,North,350,3.0,13.0,51,0.00,,,0.00,Wunderground v.1.15,2013-03-09 00:20:00,
2013-03-08 19:25:00,48.6,31.8,30.17,North,356,3.0,13.0,52,0.00,,,0.00,Wunderground v.1.15,2013-03-09 00:25:00,
2013-03-08 19:30:00,48.4,31.1,30.17,NW,316,3.0,13.0,51,0.00,,,0.00,Wunderground v.1.15,2013-03-09 00:30:00,
2013-03-08 19:35:00,48.3,30.5,30.17,North,9,4.0,13.0,50,0.00,,,0.00,Wunderground v.1.15,2013-03-09 00:35:00,
2013-03-08 19:40:00,48.2,30.9,30.17,NNE,15,4.0,13.0,51,0.00,,,0.00,Wunderground v.1.15,2013-03-09 00:40:00,
2013-03-08 19:45:00,48.2,30.9,30.17,NNW,348,4.0,13.0,51,0.00,,,0.00,Wunderground v.1.15,2013-03-09 00:45:00,
2013-03-08 19:50:00,48.2,30.9,30.18,NNW,347,5.0,13.0,51,0.00,,,0.00,Wunderground v.1.15,2013-03-09 00:50:00,
2013-03-08 19:55:00,48.2,30.9,30.18,NNW,346,5.0,13.0,51,0.00,,,0.00,Wunderground v.1.15,2013-03-09 00:55:00,
2013-03-08 20:00:00,48.1,30.8,30.18,WNW,295,5.0,5.0,51,0.00,,,0.00,Wunderground v.1.15,2013-03-09 01:00:00,
2013-03-08 20:05:00,47.9,31.1,30.18,NNW,342,4.0,6.0,52,0.00,,,0.00,Wunderground v.1.15,2013-03-09 01:05:00,
2013-03-08 20:10:00,47.7,30.9,30.18,NNW,327,3.0,6.0,52,0.00,,,0.00,Wunderground v.1.15,2013-03-09 01:10:00,
2013-03-08 20:15:00,47.5,30.7,30.18,NNW,332,3.0,6.0,52,0.00,,,0.00,Wunderground v.1.15,2013-03-09 01:15:00,
2013-03-08 20:25:00,47.2,30.9,30.18,NNW,342,3.0,6.0,53,0.00,,,0.00,Wunderground v.1.15,2013-03-09 01:25:00,
2013-03-08 20:30:00,47.0,31.2,30.18,NNW,330,3.0,6.0,54,0.00,,,0.00,Wunderground v.1.15,2013-03-09 01:30:00,
2013-03-08 20:35:00,46.7,31.8,30.18,NNW,337,3.0,6.0,56,0.00,,,0.00,Wunderground v.1.15,2013-03-09 01:35:00,
2013-03-08 20:40:00,46.5,30.7,30.19,NNW,330,3.0,6.0,54,0.00,,,0.00,Wunderground v.1.15,2013-03-09 01:40:00,
2013-03-08 20:45:00,46.3,31.4,30.19,NNE,15,3.0,6.0,56,0.00,,,0.00,Wunderground v.1.15,2013-03-09 01:45:00,
2013-03-08 20:50:00,46.0,30.7,30.19,NNW,342,3.0,3.0,55,0.00,,,0.00,Wunderground v.1.15,2013-03-09 01:50:00,
2013-03-08 20:55:00,45.8,30.5,30.19,North,6,3.0,4.0,55,0.00,,,0.00,Wunderground v.1.15,2013-03-09 01:55:00,
2013-03-08 21:00:00,45.6,31.2,30.19,North,352,3.0,6.0,57,0.00,,,0.00,Wunderground v.1.15,2013-03-09 02:00:00,
2013-03-08 21:05:00,45.4,31.0,30.20,NNW,348,3.0,6.0,57,0.00,,,0.00,Wunderground v.1.15,2013-03-09 02:05:00,
2013-03-08 21:10:00,45.2,31.3,30.20,North,354,3.0,6.0,58,0.00,,,0.00,Wunderground v.1.15,2013-03-09 02:10:00,
2013-03-08 21:15:00,45.0,31.5,30.20,North,5,4.0,6.0,59,0.00,,,0.00,Wunderground v.1.15,2013-03-09 02:15:00,
2013-03-08 21:20:00,44.9,31.4,30.20,NNE,25,4.0,4.0,59,0.00,,,0.00,Wunderground v.1.15,2013-03-09 02:20:00,
2013-03-08 21:25:00,44.8,30.9,30.20,North,5,4.0,6.0,58,0.00,,,0.00,Wunderground v.1.15,2013-03-09 02:25:00,
2013-03-08 21:30:00,44.9,31.4,30.20,North,349,4.0,6.0,59,0.00,,,0.00,Wunderground v.1.15,2013-03-09 02:30:00,
2013-03-08 21:35:00,45.0,31.5,30.20,NNW,337,4.0,6.0,59,0.00,,,0.00,Wunderground v.1.15,2013-03-09 02:35:00,
2013-03-08 21:40:00,44.9,31.8,30.20,North,1,4.0,6.0,60,0.00,,,0.00,Wunderground v.1.15,2013-03-09 02:40:00,
2013-03-08 21:45:00,44.6,30.7,30.21,NNW,335,4.0,6.0,58,0.00,,,0.00,Wunderground v.1.15,2013-03-09 02:45:00,
2013-03-08 21:50:00,44.5,31.1,30.21,North,352,4.0,6.0,59,0.00,,,0.00,Wunderground v.1.15,2013-03-09 02:50:00,
2013-03-08 21:55:00,44.8,31.3,30.21,North,11,4.0,6.0,59,0.00,,,0.00,Wunderground v.1.15,2013-03-09 02:55:00,
2013-03-08 22:00:00,44.9,31.4,30.21,North,359,5.0,6.0,59,0.00,,,0.00,Wunderground v.1.15,2013-03-09 03:00:00,
2013-03-08 22:10:00,45.3,31.0,30.21,North,353,7.0,9.0,57,0.00,,,0.00,Wunderground v.1.15,2013-03-09 03:10:00,
2013-03-08 22:15:00,45.2,30.9,30.22,North,352,7.0,9.0,57,0.00,,,0.00,Wunderground v.1.15,2013-03-09 03:15:00,
2013-03-08 22:20:00,45.1,31.6,30.22,North,8,6.0,6.0,59,0.00,,,0.00,Wunderground v.1.15,2013-03-09 03:20:00,
2013-03-08 22:30:00,44.8,31.3,30.23,North,11,5.0,6.0,59,0.00,,,0.00,Wunderground v.1.15,2013-03-09 03:30:00,
2013-03-08 22:35:00,44.8,31.8,30.23,NNE,13,6.0,6.0,60,0.00,,,0.00,Wunderground v.1.15,2013-03-09 03:35:00,
2013-03-08 22:40:00,44.6,31.6,30.23,NNW,340,5.0,5.0,60,0.00,,,0.00,Wunderground v.1.15,2013-03-09 03:40:00,
2013-03-08 22:45:00,44.5,31.5,30.24,NNW,332,5.0,6.0,60,0.00,,,0.00,Wunderground v.1.15,2013-03-09 03:45:00,
2013-03-08 22:50:00,44.4,31.4,30.24,NNE,15,6.0,7.0,60,0.00,,,0.00,Wunderground v.1.15,2013-03-09 03:50:00,
2013-03-08 22:55:00,44.4,31.4,30.24,North,9,7.0,7.0,60,0.00,,,0.00,Wunderground v.1.15,2013-03-09 03:55:00,
2013-03-08 23:00:00,44.2,31.6,30.24,NNE,19,6.0,10.0,61,0.00,,,0.00,Wunderground v.1.15,2013-03-09 04:00:00,
2013-03-08 23:05:00,44.1,31.5,30.24,North,360,5.0,10.0,61,0.00,,,0.00,Wunderground v.1.15,2013-03-09 04:05:00,
2013-03-08 23:10:00,43.9,31.7,30.24,North,356,5.0,10.0,62,0.00,,,0.00,Wunderground v.1.15,2013-03-09 04:10:00,
2013-03-08 23:15:00,43.6,31.4,30.24,NNW,342,5.0,10.0,62,0.00,,,0.00,Wunderground v.1.15,2013-03-09 04:15:00,
2013-03-08 23:20:00,43.5,31.3,30.24,North,4,5.0,10.0,62,0.00,,,0.00,Wunderground v.1.15,2013-03-09 04:20:00,
2013-03-08 23:25:00,43.3,31.5,30.24,North,350,5.0,10.0,63,0.00,,,0.00,Wunderground v.1.15,2013-03-09 04:25:00,
2013-03-08 23:35:00,43.0,31.6,30.24,NNW,333,5.0,10.0,64,0.00,,,0.00,Wunderground v.1.15,2013-03-09 04:35:00,
2013-03-08 23:40:00,42.8,31.5,30.24,NNE,19,5.0,10.0,64,0.00,,,0.00,Wunderground v.1.15,2013-03-09 04:40:00,
2013-03-08 23:45:00,42.7,31.4,30.24,North,11,5.0,10.0,64,0.00,,,0.00,Wunderground v.1.15,2013-03-09 04:45:00,
2013-03-08 23:50:00,42.6,31.3,30.24,NNE,19,5.0,5.0,64,0.00,,,0.00,Wunderground v.1.15,2013-03-09 04:50:00,
2013-03-08 23:55:00,42.5,31.2,30.24,NW,326,5.0,10.0,64,0.00,,,0.00,Wunderground v.1.15,2013-03-09 04:55:00,